GW6957 Weather Reports


time (UTC)temp
F
wind
direction
speed
knots
gust
knots
rain 1hr
in
rain 24hr
in
rain mn
in
humidity
%
barometer
mb
20260504202422 80 359 3.5 5.2 0.00 0.00 0.15 41 1010.8
20260504201918 79 201 4.3 8.7 0.00 0.00 0.15 41 1010.8
20260504201418 80 147 3.5 3.5 0.00 0.00 0.15 42 1010.8
20260504200918 80 141 6.1 7.0 0.00 0.00 0.15 43 1010.8
20260504200418 80 201 4.3 5.2 0.00 0.00 0.15 43 1010.8
20260504195917 80 82 4.3 5.2 0.00 0.00 0.15 41 1011.2
20260504195418 80 103 4.3 7.0 0.00 0.00 0.15 41 1011.2
20260504194918 80 194 1.7 1.7 0.00 0.00 0.15 42 1011.2
20260504194419 78 137 4.3 5.2 0.00 0.00 0.15 43 1011.2
20260504193917 79 114 5.2 10.4 0.00 0.00 0.15 42 1011.2
20260504193418 78 143 4.3 4.3 0.00 0.00 0.15 43 1011.2
20260504192918 77 60 4.3 7.8 0.00 0.00 0.15 43 1011.2
20260504192420 79 91 6.1 8.7 0.00 0.00 0.15 43 1011.5
20260504191918 79 122 2.6 2.6 0.00 0.00 0.15 43 1011.5
20260504191418 79 119 1.7 1.7 0.00 0.00 0.15 42 1011.5
20260504190917 77 113 7.0 10.4 0.00 0.00 0.15 43 1011.2
20260504190418 80 248 6.1 9.6 0.00 0.00 0.15 42 1011.2
20260504185917 80 106 3.5 3.5 0.00 0.00 0.15 41 1011.2
20260504185417 79 119 3.5 4.3 0.00 0.00 0.15 43 1011.2
20260504184917 81 195 1.7 2.6 0.00 0.00 0.15 43 1011.5
20260504184417 81 289 0.9 1.7 0.00 0.00 0.15 40 1011.5
20260504183917 79 332 0.9 0.9 0.00 0.00 0.15 43 1011.5
20260504183418 78 77 0.9 1.7 0.00 0.00 0.15 43 1011.5
20260504182917 77 101 4.3 4.3 0.00 0.00 0.15 45 1011.5
20260504182418 79 75 2.6 3.5 0.00 0.00 0.15 45 1011.5
20260504181918 78 237 1.7 2.6 0.00 0.00 0.15 43 1011.5
20260504181417 77 134 6.1 7.0 0.00 0.00 0.15 45 1011.5
20260504180918 78 276 1.7 1.7 0.00 0.00 0.15 46 1011.5
20260504180418 76 132 3.5 3.5 0.00 0.00 0.15 48 1011.5
20260504175917 76 135 3.5 4.3 0.00 0.00 0.15 49 1011.5
20260504175418 77 78 1.7 1.7 0.00 0.00 0.15 52 1011.5
20260504174918 75 122 3.5 3.5 0.00 0.00 0.15 47 1011.9
20260504174420 77 72 0.9 0.9 0.00 0.00 0.15 46 1011.9
20260504173918 77 266 1.7 1.7 0.00 0.00 0.15 48 1011.9
20260504173418 73 124 1.7 2.6 0.00 0.00 0.15 51 1011.9
20260504172917 73 194 2.6 3.5 0.00 0.00 0.15 50 1011.9
20260504172418 71 115 6.1 8.7 0.00 0.00 0.15 52 1011.9
20260504171917 72 303 1.7 4.3 0.00 0.00 0.15 52 1011.9
20260504171418 73 175 1.7 2.6 0.00 0.00 0.15 51 1011.9
20260504170918 72 150 1.7 2.6 0.00 0.00 0.15 54 1011.9
20260504170417 72 127 4.3 4.3 0.00 0.00 0.15 59 1011.9
20260504160424 58 217 0.0 0.0 0.01 0.00 0.15 93 1013.9
20260504150918 60 214 0.9 0.9 0.00 0.00 0.15 84 1014.2
20260504150418 60 222 0.9 0.9 0.00 0.00 0.15 80 1014.2
20260504140919 58 147 2.6 2.6 0.00 0.00 0.15 80 1014.9
20260504140420 58 265 0.9 3.5 0.00 0.00 0.15 84 1014.9
20260504130420 51 77 1.7 1.7 0.01 0.00 0.15 99 1015.2
20260504110418 45 257 0.0 0.0 0.00 0.00 0.00 94 1014.2
20260504100418 44 232 0.0 0.0 0.00 0.00 0.00 96 1013.9
20260504081918 46 205 0.0 0.9 0.00 0.00 0.00 91 1014.2
20260504081417 46 222 0.0 0.0 0.00 0.00 0.00 90 1014.2
20260504080918 46 204 0.0 0.0 0.00 0.00 0.00 90 1014.6
20260504080418 46 177 0.9 0.9 0.00 0.00 0.00 91 1014.6
20260504050417 44 213 0.0 0.9 0.00 0.00 0.00 85 1016.3
20260504045917 44 239 0.0 0.0 0.00 0.00 0.00 85 1016.3
20260504045418 44 211 0.0 0.0 0.00 0.00 0.00 86 1016.3
20260504044917 44 212 0.0 0.0 0.00 0.00 0.00 86 1016.3
20260504044417 44 215 0.0 0.0 0.00 0.00 0.00 86 1016.3
20260504043917 43 218 0.0 0.0 0.00 0.00 0.00 86 1016.3
20260504043418 43 225 0.0 0.0 0.00 0.00 0.00 86 1016.3
20260504042917 43 206 0.0 0.0 0.00 0.00 0.00 86 1016.3
20260504042418 43 216 0.0 0.0 0.00 0.00 0.00 87 1016.6
20260504041918 43 214 0.0 0.0 0.00 0.00 0.00 85 1016.6
20260504041417 44 204 0.0 0.0 0.00 0.00 0.00 86 1016.6
20260504040918 44 207 0.0 0.0 0.00 0.00 0.00 85 1016.3
20260504040418 44 198 0.0 0.0 0.00 0.00 0.00 84 1016.3
20260504035918 44 202 0.0 0.0 0.00 0.00 0.00 86 1016.6
20260504035418 44 199 0.0 0.0 0.00 0.00 0.00 84 1016.6
20260504034917 43 201 0.0 0.0 0.00 0.00 0.00 85 1016.6
20260504034418 42 220 0.0 0.0 0.00 0.00 0.00 86 1016.6
20260504033917 42 223 0.0 0.0 0.00 0.00 0.00 85 1016.6
20260504033418 42 215 0.0 0.0 0.00 0.00 0.00 86 1016.3
20260504032917 42 217 0.0 0.0 0.00 0.00 0.00 85 1016.3
20260504032417 42 215 0.0 0.0 0.00 0.00 0.00 86 1016.3
20260504031919 42 220 0.0 0.0 0.00 0.00 0.00 85 1016.3
20260504031418 43 204 0.0 0.0 0.00 0.00 0.00 85 1016.3
20260504030917 43 213 0.0 0.0 0.00 0.00 0.00 84 1015.9
20260504030417 43 209 0.0 0.0 0.00 0.00 0.00 83 1015.9
20260504025917 43 221 0.0 0.0 0.00 0.00 0.00 83 1015.9
20260504025417 43 211 0.0 0.0 0.00 0.00 0.00 83 1015.9
20260504024918 44 206 0.0 0.0 0.00 0.00 0.00 82 1015.9
20260504024417 44 210 0.0 0.0 0.00 0.00 0.00 82 1015.9
20260504023918 44 211 0.0 0.0 0.00 0.00 0.00 81 1015.9
20260504023418 44 228 0.0 0.0 0.00 0.00 0.00 79 1015.9
20260504022917 44 194 0.0 0.0 0.00 0.00 0.00 80 1015.9
20260504022417 44 230 0.0 0.0 0.00 0.00 0.00 78 1015.2
20260504021919 45 205 0.0 0.0 0.00 0.00 0.00 76 1015.2
20260504021418 45 222 0.0 0.0 0.00 0.00 0.00 77 1015.2
20260504020918 45 215 0.0 0.0 0.00 0.00 0.00 77 1015.2
20260504020419 46 213 0.0 0.0 0.00 0.00 0.00 76 1015.2
20260504015917 46 213 0.0 0.0 0.00 0.00 0.00 75 1014.9
20260504015417 46 215 0.0 0.0 0.00 0.00 0.00 74 1014.9
20260504014917 46 206 0.0 0.0 0.00 0.00 0.00 74 1014.9
20260504014419 46 227 0.0 0.0 0.00 0.00 0.00 73 1014.9
20260504013917 47 221 0.0 0.0 0.00 0.00 0.00 71 1014.9
20260504013417 47 212 0.0 0.0 0.00 0.00 0.00 71 1014.9
20260504012918 47 212 0.0 0.0 0.00 0.00 0.00 69 1014.9
20260504012418 48 207 0.0 0.0 0.00 0.00 0.00 70 1014.9
20260504011917 48 209 0.0 0.0 0.00 0.00 0.00 70 1014.9
20260504011417 49 208 0.0 0.0 0.00 0.00 0.00 68 1014.9
20260504010917 49 215 0.0 0.0 0.00 0.00 0.00 67 1014.9
20260504010417 50 205 0.0 0.0 0.00 0.00 0.00 65 1014.9
20260504005917 50 212 0.0 0.0 0.00 0.00 0.00 64 1014.9
20260504005418 50 210 0.0 0.0 0.00 0.00 0.00 62 1014.9
20260504004917 51 211 0.0 0.0 0.00 0.00 0.00 63 1014.9
20260504004418 51 214 0.0 0.0 0.00 0.00 0.00 63 1015.2
20260504003917 51 221 0.0 0.0 0.00 0.00 0.00 60 1015.2
20260504003418 51 217 0.9 0.9 0.00 0.00 0.00 62 1015.2
20260504002920 51 218 0.0 0.0 0.00 0.00 0.00 59 1015.2
20260504002418 51 204 0.0 0.0 0.00 0.00 0.00 59 1015.2
20260504001917 52 196 0.0 0.0 0.00 0.00 0.00 58 1015.2
20260504001417 52 229 0.0 0.0 0.00 0.00 0.00 57 1015.2
20260504000917 52 207 0.0 0.0 0.00 0.00 0.00 59 1015.2
20260504000417 53 208 0.0 0.0 0.00 0.00 0.00 57 1015.2
20260503235917 53 214 0.0 0.0 0.00 0.00 0.00 56 1015.2
20260503235417 54 246 0.9 1.7 0.00 0.00 0.00 53 1015.2
20260503234918 54 255 0.9 0.9 0.00 0.00 0.00 51 1014.9
20260503234417 56 309 0.9 0.9 0.00 0.00 0.00 51 1014.9
20260503233918 57 252 0.0 0.9 0.00 0.00 0.00 48 1014.9
20260503233417 60 254 0.0 0.0 0.00 0.00 0.00 43 1015.2
20260503232917 61 101 1.7 1.7 0.00 0.00 0.00 33 1015.2
20260503232417 61 112 5.2 7.8 0.00 0.00 0.00 32 1015.2
20260503231919 62 179 2.6 5.2 0.00 0.00 0.00 33 1015.2
20260503231418 61 174 1.7 1.7 0.00 0.00 0.00 36 1015.2
20260503230917 61 120 2.6 3.5 0.00 0.00 0.00 33 1015.2
20260503230417 61 247 0.0 0.0 0.00 0.00 0.00 40 1015.2
20260503225917 62 196 0.9 0.9 0.00 0.00 0.00 34 1015.2
20260503225418 62 192 0.9 0.9 0.00 0.00 0.00 32 1015.2
20260503224918 62 70 4.3 5.2 0.00 0.00 0.00 31 1015.2
20260503224417 62 17 5.2 5.2 0.00 0.00 0.00 31 1015.2
20260503223918 63 131 4.3 5.2 0.00 0.00 0.00 31 1015.2
20260503223418 63 197 0.0 1.7 0.00 0.00 0.00 31 1015.9
20260503222917 63 133 1.7 1.7 0.00 0.00 0.00 31 1015.9
20260503222417 63 164 4.3 6.1 0.00 0.00 0.00 31 1015.9
20260503221917 63 123 2.6 3.5 0.00 0.00 0.00 31 1015.9
20260503221417 64 84 2.6 2.6 0.00 0.00 0.00 30 1015.9
20260503220917 63 136 1.7 2.6 0.00 0.00 0.00 29 1015.9
20260503220417 64 112 5.2 8.7 0.00 0.00 0.00 29 1015.9
20260503215917 64 105 3.5 7.0 0.00 0.00 0.00 31 1016.3
20260503215417 65 90 3.5 3.5 0.00 0.00 0.00 29 1016.3
20260503214917 64 121 4.3 5.2 0.00 0.00 0.00 29 1016.3
20260503214417 65 139 1.7 5.2 0.00 0.00 0.00 28 1016.3
20260503213917 67 272 1.7 1.7 0.00 0.00 0.00 27 1016.3
20260503213417 67 108 6.1 6.1 0.00 0.00 0.00 27 1016.6
20260503212918 66 124 2.6 3.5 0.00 0.00 0.00 27 1016.6
20260503212417 66 155 4.3 6.1 0.00 0.00 0.00 27 1016.6
20260503211917 66 178 1.7 2.6 0.00 0.00 0.00 27 1016.6
20260503211417 66 116 5.2 7.0 0.00 0.00 0.00 28 1016.6
20260503210918 67 90 4.3 7.0 0.00 0.00 0.00 26 1016.6
20260503210417 68 177 1.7 3.5 0.00 0.00 0.00 29 1016.6
20260503205918 66 95 5.2 7.0 0.00 0.00 0.00 29 1016.6
20260503205417 66 106 6.1 6.1 0.00 0.00 0.00 29 1016.6
20260503204918 66 76 4.3 6.1 0.00 0.00 0.00 27 1016.6
20260503204417 68 49 1.7 1.7 0.00 0.00 0.00 25 1016.6
20260503203918 68 132 7.0 7.8 0.00 0.00 0.00 27 1016.6
20260503203417 67 258 1.7 1.7 0.00 0.00 0.00 27 1016.9
20260503202918 67 137 0.9 1.7 0.00 0.00 0.00 26 1016.9